Location: Unspecified
(0.0000°N, 0.0000°E)
Time: 18:51:04
(UTC+00:00)

deb Explorer IX - Pass Details

Date: 21 June 2019
Orbit: 539 x 1112 km, 38.8° (Epoch: 19 July)

Event Time Altitude Azimuth Distance (km) Brightness Sun altitude
Rises 20:56:49 0° 330° (NNW) 3,565 ? -39.4°
Reaches altitude 10° 21:00:02 10° 343° (NNW) 2,517 ? -40.1°
Enters shadow 21:01:11 14° 350° (N) 2,178 ? -40.3°
